Skip to main content

Madeira, Pico do Areeiro

ID 1210974 · 32.7351, -16.9283 map

Latest reading · 2026-05-09 19:00 (Europe/Lisbon)

Temperature
4.0 °C
Humidity
100 %
Pressure
Precipitation
0.0 mm
Radiation
Wind speed
Wind direction
No wind

24-hour history

Time (Europe/Lisbon) Temp Humidity Pressure Rain Wind Dir
2026-05-09 19:00 4.0 °C 100 % 0.0 mm
2026-05-09 18:00 4.2 °C 100 % 0.0 mm
2026-05-09 17:00 4.7 °C 100 % 0.0 mm
2026-05-09 16:00 5.2 °C 100 % 0.2 mm
2026-05-09 15:00 5.6 °C 99 % 0.0 mm
2026-05-09 14:00 5.6 °C 99 % 0.1 mm
2026-05-09 13:00 5.2 °C 100 % 0.0 mm
2026-05-09 12:00 4.8 °C 100 % 0.0 mm
2026-05-09 11:00 3.6 °C 100 % 0.0 mm
2026-05-09 10:00 3.2 °C 100 % 0.0 mm
2026-05-09 09:00 2.8 °C 100 % 0.0 mm
2026-05-09 08:00 2.1 °C 100 % 0.0 mm
2026-05-09 07:00 2.7 °C 100 % 0.0 mm
2026-05-09 06:00 3.0 °C 100 % 0.1 mm
2026-05-09 05:00 3.1 °C 100 % 0.0 mm
2026-05-09 04:00 2.9 °C 100 % 0.1 mm
2026-05-09 03:00 2.7 °C 100 % 0.0 mm
2026-05-09 02:00 2.9 °C 100 % 0.0 mm
2026-05-09 01:00 2.9 °C 100 % 0.0 mm
2026-05-09 00:00 3.1 °C 100 % 0.0 mm
2026-05-08 23:00 3.0 °C 100 % 0.0 mm
2026-05-08 22:00 3.4 °C 100 % 0.0 mm
2026-05-08 21:00 3.4 °C 100 % 0.0 mm
2026-05-08 20:00 3.5 °C 100 % 0.7 mm